Weather History for Sacramento, CA

Change the Weather History Date:

Saturday, July 5, 2014

  Actual Average Record
Temperature  
Mean Temperature 77 °F -  
Max Temperature 97 °F 91 °F 107 °F (2007)
Min Temperature 57 °F 58 °F 51 °F (1948)
Degree Days  
Heating Degree Days 0    
Cooling Degree Days 12    
Growing Degree Days 27 (Base 50)    
Moisture  
Dew Point 48 °F    
Average Humidity 45    
Maximum Humidity 77    
Minimum Humidity 12    
Precipitation  
Precipitation 0.00 in 0.01 in 0.00 in (2015)
Month to date precipitation 0.00 0.01  
Year to date precipitation 7.89 11.91  
Since 1 July precipitation 0.00 0.01  
Sea Level Pressure  
Sea Level Pressure 29.97 in    
Wind  
Wind Speed 6 mph (SSW)    
Max Wind Speed 13 mph    
Max Gust Speed 16 mph    
Visibility 10 miles    
Events      
T = Trace of Precipitation, MM = Missing Value Source: NWS Daily Summary

Daily Weather History Graph

Daily Weather History Graph

Search for Another Location

Airport:

Trip Planner

Search our weather history database for the weather conditions in past years. The results will help you decide how hot, cold, wet, or windy it might be!

Date:

Astronomy

Jul. 05, 2014 Rise Set
Actual Time 5:47 AM PDT 8:33 PM PDT
Civil Twilight 5:16 AM PDT 9:04 PM PDT
Nautical Twilight 4:36 AM PDT 9:44 PM PDT
Astronomical Twilight 3:51 AM PDT 10:28 PM PDT
Moon 1:41 PM PDT (7/5) 12:34 AM PDT (7/5)
Length of Visible Light 15h 48m
Length of Day
14h 45m
First Quarter, 53% of the Moon is Illuminated
Jul 5
First Quarter
Jul 12
Full
Jul 18
Last Quarter
Jul 26
New
Aug 3
First Quarter

Hourly Weather History & Observations

Time (PDT) Temp. Heat Index Dew Point Humidity Pressure Visibility Wind Dir Wind Speed Gust Speed Precip Events Conditions
12:53 AM 62.1 °F - 50.0 °F 65% 29.93 in 10.0 mi SSE 3.5 mph - N/A   Clear
1:53 AM 61.0 °F - 50.0 °F 67% 29.94 in 10.0 mi Variable 4.6 mph - N/A   Clear
2:53 AM 60.1 °F - 50.0 °F 69% 29.94 in 10.0 mi South 3.5 mph - N/A   Clear
3:53 AM 59.0 °F - 50.0 °F 72% 29.95 in 10.0 mi SSE 4.6 mph - N/A   Clear
4:53 AM 57.9 °F - 50.0 °F 75% 29.95 in 10.0 mi SSE 3.5 mph - N/A   Clear
5:53 AM 57.0 °F - 50.0 °F 77% 29.97 in 10.0 mi South 4.6 mph - N/A   Clear
6:53 AM 59.0 °F - 51.1 °F 75% 29.99 in 10.0 mi South 4.6 mph - N/A   Clear
7:43 AM 60.8 °F - 51.8 °F 72% 30.01 in 10.0 mi SSW 9.2 mph - N/A   Partly Cloudy
7:53 AM 60.8 °F - 51.8 °F 72% 30.01 in 10.0 mi Variable 6.9 mph - N/A   Partly Cloudy
8:53 AM 64.0 °F - 53.1 °F 67% 30.02 in 10.0 mi SSW 6.9 mph - N/A   Clear
9:53 AM 69.8 °F - 53.6 °F 56% 30.03 in 6.0 mi SW 6.9 mph - N/A   Haze
10:53 AM 75.9 °F - 53.1 °F 45% 30.03 in 10.0 mi SSW 4.6 mph - N/A   Smoke
11:53 AM 80.1 °F 80.0 °F 54.0 °F 40% 30.02 in 10.0 mi WSW 5.8 mph - N/A   Smoke
12:53 PM 87.1 °F 84.9 °F 53.1 °F 31% 30.01 in 9.0 mi WNW 5.8 mph - N/A   Smoke
1:53 PM 91.0 °F - 46.0 °F 21% 29.99 in 10.0 mi West 6.9 mph - N/A   Smoke
2:53 PM 93.9 °F - 46.9 °F 20% 29.98 in 10.0 mi Variable 6.9 mph - N/A   Smoke
3:53 PM 96.1 °F - 36.0 °F 12% 29.96 in 10.0 mi SSW 6.9 mph - N/A   Smoke
4:53 PM 97.0 °F - 35.1 °F 11% 29.94 in 10.0 mi WSW 11.5 mph - N/A   Smoke
5:53 PM 95.0 °F - 35.1 °F 12% 29.93 in 10.0 mi SW 10.4 mph 17.3 mph N/A   Smoke
6:53 PM 91.0 °F - 42.1 °F 18% 29.93 in 10.0 mi SSW 8.1 mph - N/A   Smoke
7:53 PM 84.0 °F - 48.9 °F 29% 29.93 in 10.0 mi SSW 8.1 mph - N/A   Smoke
8:53 PM 77.0 °F - 45.0 °F 32% 29.94 in 10.0 mi South 5.8 mph - N/A   Smoke
9:53 PM 73.0 °F - 44.1 °F 35% 29.96 in 10.0 mi SSW 5.8 mph - N/A   Smoke
10:53 PM 70.0 °F - 46.0 °F 42% 29.95 in 10.0 mi SSW 9.2 mph - N/A   Smoke
11:53 PM 66.9 °F - 48.0 °F 51% 29.96 in 10.0 mi Variable 3.5 mph - N/A   Smoke